This is the latest recevied weather packets stored in our database for station/object K9VSK-9. If no packets are shown the sender has not sent any weather packets the latest 10 day(s).
| Time | Temp. | Humidity | Pressure | Rain* | Wind** | Luminosity | Snow |
|---|---|---|---|---|---|---|---|
| 1777560735 | 12.78° C | 52% | 1018.6 hPa | 0 mm | - | - | - |
| 1777560434 | 12.78° C | 54% | 1018.7 hPa | 0 mm | - | - | - |
| 1777560134 | 12.22° C | 54% | 1018.8 hPa | 0 mm | - | - | - |
| 1777559834 | 12.22° C | 56% | 1018.8 hPa | 0 mm | - | - | - |
| 1777559534 | 12.22° C | 57% | 1018.7 hPa | 0 mm | - | - | - |
| 1777559233 | 11.67° C | 55% | 1018.8 hPa | 0 mm | - | - | - |
| 1777558933 | 11.67° C | 56% | 1018.8 hPa | 0 mm | - | - | - |
| 1777558633 | 11.67° C | 61% | 1018.9 hPa | 0 mm | - | - | - |
| 1777558332 | 11.67° C | 62% | 1019 hPa | 0 mm | - | - | - |
| 1777558032 | 11.11° C | 63% | 1019 hPa | 0 mm | - | - | - |
| 1777557732 | 11.11° C | 65% | 1019 hPa | 0 mm | - | - | - |
| 1777557433 | 11.11° C | 69% | 1019.1 hPa | 0 mm | - | - | - |
| 1777557131 | 10.56° C | 68% | 1019.1 hPa | 0 mm | - | - | - |
| 1777556831 | 10.56° C | 69% | 1019.2 hPa | 0 mm | - | - | - |
| 1777556531 | 10.56° C | 70% | 1019.1 hPa | 0 mm | - | - | - |
| 1777556230 | 10.56° C | 71% | 1019.1 hPa | 0 mm | - | - | - |
| 1777555930 | 10° C | 74% | 1019.1 hPa | 0 mm | - | - | - |
| 1777555630 | 9.44° C | 76% | 1019.1 hPa | 0 mm | - | - | - |
| 1777555330 | 8.89° C | 79% | 1019.1 hPa | 0 mm | - | - | - |
| 1777555029 | 8.89° C | 80% | 1019 hPa | 0 mm | - | - | - |
| 1777554729 | 8.33° C | 82% | 1019.1 hPa | 0 mm | - | - | - |
| 1777554429 | 7.78° C | 84% | 1019.1 hPa | 0 mm | - | - | - |
| 1777554129 | 7.78° C | 86% | 1019.2 hPa | 0 mm | - | - | - |
| 1777553828 | 7.22° C | 87% | 1019.2 hPa | 0 mm | - | - | - |
| 1777553528 | 7.22° C | 88% | 1019.2 hPa | 0 mm | - | - | - |
* Rain latest hour (hover to see other rain measurements)
** Current wind speed in m/s (hover to see current wind gust speed)